This is the latest recevied weather packets stored in our database for station/object W0BJ. If no packets are shown the sender has not sent any weather packets the latest 10 day(s).
| Time | Temp. | Humidity | Pressure | Rain* | Wind** | Luminosity | Snow |
|---|---|---|---|---|---|---|---|
| 1777832597 | 22.78° C | 35% | 1015.8 hPa | 0 mm | - | - | - |
| 1777832543 | 22.78° C | 34% | 1015.8 hPa | 0 mm | - | - | - |
| 1777831945 | 22.78° C | 34% | 1016 hPa | 0 mm | - | - | - |
| 1777831698 | 22.78° C | 34% | 1016.1 hPa | 0 mm | - | - | - |
| 1777831344 | 22.78° C | 34% | 1016.3 hPa | 0 mm | - | - | - |
| 1777830798 | 22.22° C | 37% | 1016.8 hPa | 0 mm | - | - | - |
| 1777830744 | 22.22° C | 37% | 1016.8 hPa | 0 mm | - | - | - |
| 1777830143 | 22.22° C | 36% | 1017.2 hPa | 0 mm | - | - | - |
| 1777829899 | 22.22° C | 36% | 1017.3 hPa | 0 mm | - | - | - |
| 1777829545 | 21.67° C | 36% | 1017.5 hPa | 0 mm | - | - | - |
| 1777828998 | 22.22° C | 36% | 1017.8 hPa | 0 mm | - | - | - |
| 1777828944 | 21.67° C | 37% | 1018 hPa | 0 mm | - | - | - |
| 1777828344 | 21.11° C | 37% | 1018.3 hPa | 0 mm | - | - | - |
| 1777828098 | 21.11° C | 37% | 1018.2 hPa | 0 mm | - | - | - |
| 1777827743 | 20.56° C | 39% | 1018.3 hPa | 0 mm | - | - | - |
| 1777827198 | 20.56° C | 38% | 1018.5 hPa | 0 mm | - | - | - |
| 1777827144 | 20.56° C | 38% | 1018.6 hPa | 0 mm | - | - | - |
| 1777826543 | 20° C | 40% | 1018.8 hPa | 0 mm | - | - | - |
| 1777826299 | 20° C | 39% | 1019 hPa | 0 mm | - | - | - |
| 1777825945 | 20° C | 39% | 1018.9 hPa | 0 mm | - | - | - |
| 1777825398 | 19.44° C | 41% | 1018.9 hPa | 0 mm | - | - | - |
| 1777825344 | 19.44° C | 40% | 1018.8 hPa | 0 mm | - | - | - |
| 1777824744 | 19.44° C | 39% | 1019.1 hPa | 0 mm | - | - | - |
| 1777824498 | 19.44° C | 40% | 1019.2 hPa | 0 mm | - | - | - |
| 1777824143 | 18.89° C | 42% | 1019.3 hPa | 0 mm | - | - | - |
* Rain latest hour (hover to see other rain measurements)
** Current wind speed in m/s (hover to see current wind gust speed)